TimeEST,TemperatureF,Dew PointF,Humidity,Sea Level PressureIn,VisibilityMPH,Wind Direction,Wind SpeedMPH,Gust SpeedMPH,PrecipitationIn,Events,Conditions,WindDirDegrees,DateUTC
12:51 AM,28.0,12.0,51,30.14,10.0,Calm,Calm,-,N/A,,Clear,0,2013-01-21 05:51:00
1:51 AM,27.0,14.0,58,30.15,10.0,SSW,3.5,-,N/A,,Mostly Cloudy,210,2013-01-21 06:51:00
2:51 AM,27.0,14.0,58,30.14,10.0,Calm,Calm,-,N/A,,Clear,0,2013-01-21 07:51:00
3:51 AM,25.0,15.1,66,30.12,10.0,Calm,Calm,-,N/A,,Partly Cloudy,0,2013-01-21 08:51:00
4:51 AM,24.1,18.0,77,30.11,10.0,Calm,Calm,-,N/A,,Clear,0,2013-01-21 09:51:00
5:51 AM,25.0,17.1,72,30.11,10.0,Calm,Calm,-,N/A,,Scattered Clouds,0,2013-01-21 10:51:00
6:51 AM,24.1,18.0,77,30.11,10.0,Calm,Calm,-,N/A,,Overcast,0,2013-01-21 11:51:00
7:51 AM,25.0,17.1,72,30.10,10.0,SW,3.5,-,N/A,,Overcast,220,2013-01-21 12:51:00
8:51 AM,26.1,16.0,66,30.11,10.0,SW,3.5,-,N/A,,Overcast,220,2013-01-21 13:51:00
9:51 AM,28.0,14.0,56,30.11,10.0,WSW,8.1,-,N/A,,Overcast,240,2013-01-21 14:51:00
10:51 AM,32.0,12.0,44,30.10,10.0,West,15.0,21.9,N/A,,Clear,260,2013-01-21 15:51:00
11:51 AM,34.0,12.9,42,30.08,10.0,West,10.4,23.0,N/A,,Clear,260,2013-01-21 16:51:00
12:51 PM,33.1,15.1,48,30.05,10.0,WSW,18.4,27.6,N/A,,Partly Cloudy,250,2013-01-21 17:51:00
1:51 PM,34.0,12.0,40,30.04,10.0,West,15.0,25.3,N/A,,Mostly Cloudy,260,2013-01-21 18:51:00
2:51 PM,33.1,10.9,40,30.05,10.0,WSW,13.8,24.2,N/A,,Mostly Cloudy,250,2013-01-21 19:51:00
3:51 PM,32.0,10.0,40,30.06,10.0,West,11.5,19.6,N/A,,Mostly Cloudy,270,2013-01-21 20:51:00
4:51 PM,30.9,9.0,40,30.08,10.0,West,12.7,23.0,N/A,,Scattered Clouds,270,2013-01-21 21:51:00
5:51 PM,28.0,7.0,41,30.10,10.0,West,16.1,24.2,N/A,,Clear,260,2013-01-21 22:51:00
6:51 PM,26.1,10.0,51,30.12,10.0,WNW,8.1,23.0,N/A,,Partly Cloudy,290,2013-01-21 23:51:00
7:51 PM,24.1,7.0,48,30.14,10.0,West,11.5,20.7,N/A,,Clear,270,2013-01-22 00:51:00
8:51 PM,21.9,5.0,48,30.17,10.0,WNW,10.4,20.7,N/A,,Clear,300,2013-01-22 01:51:00
9:51 PM,19.9,3.0,48,30.19,10.0,WNW,11.5,24.2,N/A,,Clear,290,2013-01-22 02:51:00
10:51 PM,19.0,1.9,47,30.21,10.0,WNW,10.4,20.7,N/A,,Clear,290,2013-01-22 03:51:00
11:51 PM,18.0,1.0,48,30.22,10.0,WNW,16.1,26.5,N/A,,Clear,300,2013-01-22 04:51:00